Location: Cartignies
(50.0929°N, 3.8447°E)
Time: 14:02:18
(UTC+00:00)

Radarsat Rocket - Pass Details

Date: 12 January 2026
Orbit: 933 x 1491 km, 100.5° (Epoch: 16 February)

Event Time Altitude Azimuth Distance (km) Brightness Sun altitude
Rises 17:38:18 0° 146° (SE) 3,884 7.0 -14.1°
Reaches altitude 10° 17:40:57 10° 143° (SE) 2,862 6.2 -14.5°
Maximum altitude 17:47:08 58° 66° (ENE) 1,136 4.0 -15.5°
Drops below altitude 10° 17:52:53 10° 349° (NNW) 2,671 6.3 -16.3°
Sets 17:55:17 0° 345° (NNW) 3,605 7.0 -16.7°
